Walla Walla, WA

10:26 AM PDT on September 25, 2016 (GMT -0700)
Walla Walla Regional

Weather History for KALW - January, 2013

Change the Weather History Date:

Monday, January 7, 2013

  Actual Average Record
Temperature  
Mean Temperature 42 °F 34 °F  
Max Temperature 52 °F 39 °F 64 °F (2002)
Min Temperature 33 °F 29 °F -9 °F (1974)
Degree Days  
Heating Degree Days 22 31  
Month to date heating degree days 219  
Since 1 July heating degree days 2357  
Cooling Degree Days 0 0  
Month to date cooling degree days 0  
Year to date cooling degree days 0  
Moisture  
Dew Point 36 °F    
Average Humidity 75    
Maximum Humidity 93    
Minimum Humidity 61    
Precipitation  
Precipitation 0.52 in 0.09 in 0.52 in (2013)
Month to date precipitation 0.60  
Year to date precipitation 0.60  
Snow  
Snow 0.00 in 0.10 in 2.00 in (1991)
Month to date snowfall 0.6  
Year to date snowfall 0.6  
Since 1 July snowfall 6.3  
Snow Depth -    
Sea Level Pressure  
Sea Level Pressure 30.02 in    
Wind  
Wind Speed 9 mph (SSW)    
Max Wind Speed 25 mph    
Max Gust Speed 36 mph    
Visibility 8 miles    
Events Rain    
T = Trace of Precipitation, MM = Missing Value Source: NWS Daily Summary

Daily Weather History Graph

Daily Weather History Graph

Search for Another Location

Airport or City:

Trip Planner

Search our weather history database for the weather conditions in past years. The results will help you decide how hot, cold, wet, or windy it might be!

Date:

Astronomy

Jan. 07, 2013 Rise Set
Actual Time 7:34 AM PST 4:24 PM PST
Civil Twilight 7:00 AM PST 4:59 PM PST
Nautical Twilight 6:22 AM PST 5:36 PM PST
Astronomical Twilight 5:46 AM PST 6:12 PM PST
Moon 3:00 AM PST (1/7) 12:42 PM PST (1/7)
Length of Visible Light 9h 58m
Length of Day
8h 50m
Waning Crescent, 21% of the Moon is Illuminated
Jan 7
Waning Crescent
Jan 11
New
Jan 18
First Quarter
Jan 26
Full
Feb 3
Last Quarter

Hourly Weather History & Observations

Time (PST) Temp. Windchill Dew Point Humidity Pressure Visibility Wind Dir Wind Speed Gust Speed Precip Events Conditions
12:53 AM 36.0 °F - 30.9 °F 82% 30.07 in 10.0 mi Calm Calm - N/A   Overcast
1:53 AM 35.1 °F 32.2 °F 30.9 °F 85% 30.08 in 10.0 mi NW 3.5 mph - N/A   Overcast
2:53 AM 34.0 °F 28.0 °F 30.9 °F 89% 30.08 in 4.0 mi SE 6.9 mph - 0.00 in Rain Light Freezing Rain
3:12 AM 33.8 °F - 30.2 °F 87% 30.06 in 8.0 mi Calm Calm - 0.00 in   Overcast
3:37 AM 33.8 °F 29.6 °F 30.2 °F 87% 30.05 in 4.0 mi SW 4.6 mph - 0.01 in Rain Light Rain
3:53 AM 34.0 °F - 32.0 °F 92% 30.08 in 3.0 mi Calm Calm - 0.02 in Rain Light Rain
4:05 AM 33.8 °F 30.8 °F 32.0 °F 93% 30.05 in 2.5 mi South 3.5 mph - 0.02 in Rain Rain
4:16 AM 35.6 °F 29.9 °F 32.0 °F 87% 30.05 in 3.0 mi South 6.9 mph - 0.03 in Rain Rain
4:53 AM 36.0 °F 33.3 °F 34.0 °F 93% 30.05 in 4.0 mi South 3.5 mph - 0.10 in Rain Rain
5:53 AM 37.9 °F 30.9 °F 34.0 °F 86% 30.03 in 5.0 mi SSW 10.4 mph - 0.08 in Rain Light Rain
6:53 AM 41.0 °F 33.1 °F 36.0 °F 82% 29.99 in 6.0 mi South 15.0 mph - 0.07 in Rain Light Rain
7:01 AM 41.0 °F 32.8 °F 35.6 °F 81% 29.96 in 7.0 mi South 16.1 mph - 0.00 in Rain Light Rain
7:53 AM 43.0 °F 34.5 °F 37.0 °F 80% 29.96 in 6.0 mi South 19.6 mph 28.8 mph 0.06 in Rain Rain
8:53 AM 43.0 °F 34.8 °F 37.9 °F 82% 29.98 in 4.0 mi South 18.4 mph 25.3 mph 0.11 in Rain Rain
9:07 AM 44.6 °F 36.4 °F 37.4 °F 76% 29.96 in 3.0 mi South 20.7 mph - 0.03 in Rain Rain
9:53 AM 44.1 °F 36.2 °F 37.9 °F 79% 29.97 in 10.0 mi South 18.4 mph - 0.08 in Rain Light Rain
10:53 AM 48.0 °F - 37.9 °F 68% 29.97 in 10.0 mi South 17.3 mph - 0.00 in   Overcast
11:53 AM 50.0 °F - 39.9 °F 68% 29.94 in 10.0 mi South 19.6 mph - N/A   Overcast
12:53 PM 52.0 °F - 39.9 °F 63% 29.93 in 10.0 mi South 18.4 mph - N/A   Overcast
1:53 PM 52.0 °F - 39.9 °F 63% 29.95 in 10.0 mi SSW 17.3 mph - N/A   Overcast
2:53 PM 52.0 °F - 41.0 °F 66% 29.96 in 10.0 mi SSW 16.1 mph - N/A   Mostly Cloudy
3:53 PM 50.0 °F - 41.0 °F 71% 30.00 in 10.0 mi SSW 15.0 mph 24.2 mph N/A   Partly Cloudy
4:53 PM 51.1 °F - 39.9 °F 66% 30.01 in 10.0 mi SW 19.6 mph 29.9 mph N/A   Clear
5:53 PM 50.0 °F - 39.0 °F 66% 30.02 in 10.0 mi SW 16.1 mph 27.6 mph N/A   Clear
6:53 PM 50.0 °F - 37.0 °F 61% 30.03 in 10.0 mi SW 19.6 mph - N/A   Scattered Clouds
7:53 PM 50.0 °F - 37.0 °F 61% 30.03 in 10.0 mi SW 25.3 mph 35.7 mph N/A   Scattered Clouds
8:53 PM 48.9 °F - 36.0 °F 61% 30.05 in 10.0 mi SSW 17.3 mph - N/A   Scattered Clouds
9:53 PM 46.9 °F - 35.1 °F 63% 30.07 in 10.0 mi South 15.0 mph - N/A   Overcast
10:53 PM 46.9 °F - 35.1 °F 63% 30.09 in 10.0 mi SSW 16.1 mph - N/A   Mostly Cloudy
11:53 PM 46.9 °F - 35.1 °F 63% 30.12 in 10.0 mi SSW 13.8 mph - N/A   Overcast